Main page
METAR-TAF:

METAR-TAF

Airports :

Oran Tafraoui Airport

Tafraoui, Algeria

latitude: 35-32-33N, longitude: 000-31-56W, elevation: 112 m

Current weather observation

The report was made 9 hours and 1 minutes ago, at 05:00 UTC
Wind 2 kt from the Southeast
Temperature 19°C
Humidity 100%
Pressure 1015 hPa
Visibility: 1000 m
Scattered clouds at a height of 2000 ft

METAR: DAOL 210500Z 14002KT 1000 SCT020 19/19 Q1015

Time: 15:01 (14:01 UTC)


TAF: missing

Weather observations and forecasts of more than 4000 airports (METAR and TAF reports).

The available stations are represented by yellow and red dots on the map.

Hover mouse over dot to see the name of the station.

Then click to see weather observations and forecasts.

To change the map : click on the green buttons with a black cross to zoom in, on the green button with a dash to zoom out, or on the green arrows for adjacent maps.


METAR-TAF: